Tracking 19475 objects as of 18-Jan-2019
HD Live streaming from Space Station
objects crossing your sky now

MOST

Track MOST now!
10-day predictions
MOST is classified as:


NORAD ID: 27843
Int'l Code: 2003-031D
Perigee: 822.8 km
Apogee: 838.2 km
Inclination: 98.7 °
Period: 101.4 minutes
Semi major axis: 7201 km
RCS: 0.317 m2 (medium)
Launch date: June 30, 2003
Source: Canada (CA)
Launch site: PLESETSK MISSILE AND SPACE COMPLEX (PKMTR)

Canada's space telescope, dubbed the "Humble Telescope"; minisatellite; monitor brightness variations in stars.
aabbcc
Your satellite tracking list
Your tracking list is empty




NASA's NSSDC Master Catalog

Two Line Element Set (TLE):
1 27843U 03031D   19018.00038922  .00000008  00000-0  24110-4 0  9994
2 27843  98.7121  27.7991 0010695 138.5502 221.6488 14.20582356806274
Source of the keplerian elements: AFSPC